This demonstration page uses our WeatherBlox Daily Observations layout. Learn more.

Left ArrowRight Arrow

39.12711, -84.51439

Hourly Observations for December 17, 2018

Temp ( °F °C ) Dew Point ( °F °C ) Humidity (%) Winds ( mph kmh ) Pressure ( in mb ) Visibility ( mi km ) Precip ( " mm )
12:53 am 00:53 Clear with Mist and Fog 36 2.2 35 1.7 97 97 SSW 3 6 30.13 1020 4 6 0.00 0.00
1:02 am 01:02 Clear with Mist and Fog 36 2.2 35 1.7 97 97 SSW 5 7 30.12 1020 3 4 0.00 0.00
1:25 am 01:25 Clear with Mist and Fog 34 1.1 34 1.1 100 100 S 6 9 30.12 1020 1 1 0.00 0.00
1:49 am 01:49 Mostly Cloudy with Fog 34 1 34 1 100 100 Calm 30.09 1019 0 0 0.00 0.00
1:53 am 01:53 Mostly Cloudy with Fog 34 1.1 33 0.6 97 97 S 3 6 30.11 1020 0 0 0.00 0.00
2:17 am 02:17 Mostly Cloudy with Fog 32 0 32 0 100 100 SW 3 6 30.12 1020 1 1 0.00 0.00
2:25 am 02:25 Mostly Cloudy with Freezing Fog 31 -0.6 31 -0.6 100 100 Calm 30.12 1020 0 0 0.00 0.00
2:53 am 02:53 Mostly Cloudy with Mist and Fog 34 1.1 34 1.1 100 100 W 6 9 30.11 1020 1 1 0.00 0.00
2:56 am 02:56 Mostly Clear with Mist and Fog 34 1.1 34 1.1 100 100 WSW 5 7 30.09 1019 3 4 0.00 0.00
3:09 am 03:09 Clear with Mist and Fog 32 0 31 -0.6 96 96 SW 3 6 30.15 1021 1 1 0.00 0.00
3:16 am 03:16 Mostly Cloudy with Fog 32 0 31 -0.6 96 96 SSW 3 6 30.12 1020 0 0 0.00 0.00
3:30 am 03:30 Mostly Cloudy with Freezing Fog 31 -0.6 30 -1.1 96 96 WSW 3 6 30.12 1020 0 0 0.00 0.00
3:53 am 03:53 Mostly Cloudy with Freezing Fog 31 -0.6 30 -1.1 96 96 SSW 3 6 30.10 1019 1 1 0.00 0.00
4:01 am 04:01 Mostly Cloudy with Freezing Fog 30 -1.1 29 -1.7 96 96 Calm 30.12 1020 0 0 0.00 0.00
4:53 am 04:53 Mostly Cloudy with Freezing Fog 30 -1.1 29 -1.7 96 96 SW 3 6 30.11 1020 0 0 0.00 0.00
5:53 am 05:53 Mostly Cloudy with Freezing Fog 29 -1.7 28 -2.2 96 96 Calm 30.13 1020 0 0 0.00 0.00
6:45 am 06:45 Mostly Cloudy with Freezing Fog 30 -1.1 29 -1.7 96 96 Calm 30.18 1022 1 1 0.00 0.00
6:53 am 06:53 Mostly Cloudy with Freezing Fog 30 -1.1 30 -1.1 100 100 W 3 6 30.14 1021 1 1 0.00 0.00
7:53 am 07:53 Mostly Cloudy with Freezing Fog 31 -0.6 30 -1.1 96 96 SW 3 6 30.14 1021 0 0 0.00 0.00
7:57 am 07:57 Mostly Cloudy with Freezing Fog 30 -1.1 29 -1.7 96 96 Calm 30.18 1022 0 0 0.00 0.00
8:04 am 08:04 Mostly Cloudy with Mist and Fog 31 -0.6 30 -1.1 96 96 SSW 3 6 30.15 1021 1 2 0.00 0.00
8:09 am 08:09 Mostly Cloudy with Freezing Fog 28 -2.2 28 -2.2 100 100 S 6 9 30.15 1021 1 1 0.00 0.00
8:22 am 08:22 Sunny with Mist and Fog 30 -1.1 28 -2.2 92 92 WSW 3 6 30.18 1022 3 5 0.00 0.00
8:53 am 08:53 Sunny 30 -1.1 30 -1.1 100 100 Calm 30.17 1022 10 16 0.00 0.00
9:53 am 09:53 Sunny 36 2.2 36 2.2 100 100 S 3 6 30.18 1022 10 16 0.00 0.00
10:53 am 10:53 Sunny 43 6.1 33 0.6 68 68 W 6 9 30.17 1022 10 16 0.00 0.00
11:53 am 11:53 Sunny 46 7.8 30 -1.1 54 54 W 7 11 30.15 1021 10 16 0.00 0.00
12:53 pm 12:53 Sunny 48 8.9 30 -1.1 50 50 NNW 8 13 30.13 1020 10 16 0.00 0.00
1:53 pm 13:53 Sunny 50 10 27 -2.8 41 41 N 9 15 30.13 1020 10 16 0.00 0.00
2:53 pm 14:53 Sunny 50 10 27 -2.8 41 41 NNW 9 15 30.13 1020 10 16 0.00 0.00
3:53 pm 15:53 Sunny 48 8.9 27 -2.8 44 44 N 6 9 30.13 1020 10 16 0.00 0.00
4:53 pm 16:53 Sunny 45 7.2 28 -2.2 52 52 NNW 7 11 30.16 1021 10 16 0.00 0.00
5:53 pm 17:53 Clear 42 5.6 28 -2.2 58 58 NNW 7 11 30.17 1022 10 16 0.00 0.00
6:53 pm 18:53 Clear 40 4.4 29 -1.7 65 65 NNW 7 11 30.19 1022 10 16 0.00 0.00
7:53 pm 19:53 Clear 39 3.9 29 -1.7 67 67 N 8 13 30.22 1023 10 16 0.00 0.00
8:53 pm 20:53 Clear 37 2.8 29 -1.7 73 73 N 5 7 30.23 1024 10 16 0.00 0.00
9:53 pm 21:53 Clear 34 1.1 29 -1.7 82 82 Calm 30.23 1024 10 16 0.00 0.00
10:53 pm 22:53 Clear 31 -0.6 28 -2.2 89 89 Calm 30.23 1024 10 16 0.00 0.00
11:53 pm 23:53 Clear 29 -1.7 27 -2.8 92 92 Calm 30.22 1023 10 16 0.00 0.00

Powered by AerisWeather